Regional Weather Roundup
Issued by NWS

Home | Current Version | Previous Version | Graphics & Text | Print | Product List | Glossary On
Versions: 1 2 3 4 5 6 7 8 9 10 11 12 13 14 15 16 17 18 19 20 21 22 23 24 25 26 27 28 29 30 31 32 33 34 35 36 37 38 39 40 41 42 43 44 45 46 47 48 49 50
000
ASUS43 KDMX 062103
RWRIA

WEATHER ROUNDUP FOR IOWA
NATIONAL WEATHER SERVICE DES MOINES IA
300 PM CST SAT FEB 06 2016

NOTE: "FAIR" INDICATES FEW OR NO CLOUDS BELOW 12,000 FEET WITH NO
SIGNIFICANT WEATHER AND/OR OBSTRUCTIONS TO VISIBILITY.

* - THESE STATIONS ARE NOT NWS STATIONS...THUS NOT UNDER NWS
QUALITY CONTROL.  THEY ALSO DO NOT REPORT WEATHER SUCH
AS PRECIPITATION OR FOG.

IAZ001>003-012>014-020>022-031>034-043>046-062200-
   NORTHWEST IOWA

CITY           SKY/WX    TMP DP  RH WIND       PRES   REMARKS
CARROLL *      SUNNY     34  30  86 SW20      30.06F WCI  22
CHEROKEE *     MOSUNNY   36  28  75 S16       30.01F WCI  26
DENISON *      MOSUNNY   34  30  86 S12G18    30.04F WCI  25
LE MARS *      SUNNY     36  30  80 S16       30.00F WCI  26
ORANGE CITY *  SUNNY     34  30  86 S13G18    29.97F WCI  25
SHELDON *      SUNNY     34  28  80 S17       29.95F WCI  23
SIOUX CITY     CLOUDY    39  26  59 S15       30.02F WCI  31
SPENCER        CLOUDY    35  27  72 S15       29.98F WCI  25
STORM LAKE *   MIX PCPN  34  32  93 SW18      30.02F WCI  23
$$

IAZ055>058-069>071-079>083-090>094-062200-
   SOUTHWEST IOWA

CITY           SKY/WX    TMP DP  RH WIND       PRES   REMARKS
ATLANTIC *     SUNNY     37  28  70 SW18      30.11F WCI  27
AUDUBON *      SUNNY     36  30  80 S13       30.10F WCI  27
CLARINDA *     SUNNY     45  34  65 SW12G18   30.16F
COUNCIL BLFS * SUNNY     37  28  70 SW17      30.10F WCI  28
CRESTON *      MOSUNNY   39  34  81 SW12      30.14F WCI  32
HARLAN  *      MOSUNNY   36  30  80 S14       30.13F WCI  27
LAMONI         PTSUNNY   36  32  85 SW9       30.16F WCI  29
RED OAK *      SUNNY     39  32  75 SW12      30.14F WCI  32
SHENANDOAH *   SUNNY     43  36  75 SW13      30.15F
$$

IAZ047>049-059>061-072>074-084-062200-
   CENTRAL IOWA

CITY           SKY/WX    TMP DP  RH WIND       PRES   REMARKS
AMES           PTSUNNY   31  28  89 SW14      30.13F WCI  21
ANKENY *       SUNNY     36  30  80 SW10      30.14F WCI  28
BOONE *        PTSUNNY   32  28  86 SW13      30.09F WCI  22
CHARITON *     PTSUNNY   36  30  80 SW9G17    30.16F WCI  29
DES MOINES     MOSUNNY   35  28  75 SW13      30.14F WCI  26
GRINNELL*      CLOUDY    31  29  92 SW10G17   30.14F FOG     WCI  23
KNOXVILLE *    CLOUDY    36  30  80 SW12      30.14F WCI  27
MARSHALLTOWN   PTSUNNY   31  28  89 SW13      30.12F WCI  21
NEWTON *       CLOUDY    32  32 100 SW9       30.14F WCI  24
PELLA *        CLOUDY    34  30  86 SW7       30.16F WCI  28
$$

IAZ004>006-015-016-023>025-035-036-062200-
   NORTH CENTRAL IOWA

CITY           SKY/WX    TMP DP  RH WIND       PRES   REMARKS
ALGONA *       SUNNY     32  30  93 S18       30.01F WCI  20
CLARION *      CLOUDY    30  30 100 SW15      30.07F WCI  19
ESTHERVILLE    MOSUNNY   34  28  79 S14       29.97F WCI  25
FORT DODGE *   CLOUDY    34  27  75 S14       30.07F WCI  24
MASON CITY     CLOUDY    29  27  92 SW16      30.07F WCI  17
FOREST CITY *  CLOUDY    30  30 100 S14       30.04F FOG     WCI  20
WEBSTER CITY * MOSUNNY   32  30  93 SW16      30.07F WCI  21
IOWA FALLS *   CLOUDY    31  28  88 SW14      30.11F WCI  21
$$

IAZ007>011-017>019-026>030-037>042-050>054-066-062200-
   NORTHEAST IOWA

CITY           SKY/WX    TMP DP  RH WIND       PRES   REMARKS
CEDAR RAPIDS   PTSUNNY   38  32  79 W13       30.14S WCI  30
CHARLES CITY * CLOUDY    28  28 100 SW14      30.09S FOG     WCI  17
CLINTON *      PTSUNNY   39  32  76 W10       30.15F WCI  32
DECORAH *      MOSUNNY   30  27  86 SW7       30.08F WCI  23
DUBUQUE        CLOUDY    30  27  88 SW12      30.14S WCI  20
MONTICELLO *   CLOUDY    32  28  86 W6        30.16R WCI  26
OELWEIN *      CLOUDY    30  30 100 SW12      30.12F WCI  21
WATERLOO       CLOUDY    30  27  88 SW10      30.12F WCI  21
$$

IAZ064-065-067-068-078-062200-
   EAST CENTRAL IOWA

CITY           SKY/WX    TMP DP  RH WIND       PRES   REMARKS
DAVENPORT      SUNNY     41  31  67 W13       30.15F
IOWA CITY      PTSUNNY   41  31  67 W10       30.17S
MT. PLEASANT * SUNNY     48  34  57 SW12      30.16F
MUSCATINE *    SUNNY     45  30  57 SW13      30.16F
QUAD CITIES    SUNNY     44  28  53 SW12      30.14F
$$

IAZ062-063-075>077-085>089-095>099-062200-
   SOUTHEAST IOWA

CITY           SKY/WX    TMP DP  RH WIND       PRES   REMARKS
BURLINGTON     SUNNY     46  29  51 SW12      30.15F
FAIRFIELD *    PTSUNNY   43  30  61 SW13G20   30.15S
FORT MADISON * SUNNY     46  30  53 S9        30.16F
KEOKUK *       SUNNY     48  28  46 SW16      30.15F
OSKALOOSA *      N/A     41  32  70 W12       30.15F
OTTUMWA        SUNNY     42  32  67 SW14      30.15F
WASHINGTON *   MOSUNNY   43  32  65 SW12      30.16S
$$

ABBREVIATIONS USED IN REMARKS
   TC - TEMPERATURES IN CELSIUS
  WCI - WIND CHILL INDEX
   HX - HEAT INDEX
  VSB - VISIBILITY
$$





USA.gov is the U.S. government's official web portal to all federal, state and local government web resources and services.